Location: Fontevrault
(47.1823°N, 0.0493°E)
Time: 17:07:21
(UTC+00:00)

SL-16 R/B - Visible Passes

Search period start: 21 October 2021 00:00
Search period end: 31 October 2021 00:00
Orbit: 840 x 850 km, 71.0° (Epoch: 21 October)

Date Brightness Start Highest point End Pass type
(mag) Time Alt. Az. Time Alt. Az. Time Alt. Az.
21 Oct 4.6 05:42:28 10° N 05:45:51 16° NE 05:49:14 10° ENE visible
22 Oct 4.6 05:28:24 10° N 05:31:41 15° NE 05:34:59 10° ENE visible
23 Oct 4.6 05:14:19 10° N 05:17:33 15° NE 05:20:44 10° ENE visible
24 Oct 4.7 05:00:15 10° N 05:03:23 15° NE 05:06:30 10° ENE visible
25 Oct 4.7 04:46:11 10° N 04:49:13 14° NE 04:52:15 10° ENE visible
26 Oct 4.7 04:32:07 10° N 04:35:04 14° NE 04:38:00 10° ENE visible
27 Oct 4.8 04:18:03 10° N 04:20:54 14° NE 04:23:44 10° ENE visible
27 Oct 3.0 06:00:48 10° NNW 06:06:24 54° ENE 06:11:58 10° SE visible
28 Oct 4.8 04:04:00 10° N 04:06:44 13° NE 04:09:28 10° ENE visible
28 Oct 3.1 05:46:40 10° NNW 05:52:16 53° ENE 05:57:49 10° SE visible
29 Oct 4.8 03:49:56 10° N 03:52:34 13° NNE 03:55:13 10° ENE visible
29 Oct 3.1 05:32:34 10° NNW 05:38:09 51° ENE 05:43:40 10° SE visible
30 Oct 4.8 03:35:53 10° N 03:38:25 13° NNE 03:40:57 10° ENE visible
30 Oct 3.1 05:18:28 10° NNW 05:24:00 50° ENE 05:29:32 10° SE visible
